Regional Weather Roundup
Issued by NWS

Home | Current Version | Previous Version | Graphics & Text | Print | Product List | Glossary On
Versions: 1 2 3 4 5 6 7 8 9 10 11 12 13 14 15 16 17 18 19 20 21 22 23 24 25 26 27 28 29 30 31 32 33 34 35 36 37 38 39 40 41 42 43 44 45 46 47 48 49 50
000
ASUS45 KABQ 231310
RWRNM
NEW MEXICO REGIONAL WEATHER ROUNDUP
NATIONAL WEATHER SERVICE ALBUQUERQUE NM
700 AM MDT SUN APR 23 2017

NOTE: "FAIR" MEANS FEW OR NO CLOUDS BELOW 12,000 FEET AGL WITH NO
       SIGNIFICANT WEATHER OR OBSTRUCTIONS TO VISION.

      THIS PRODUCT IS RELEASED AS TWO VERSIONS.  ONE VERSION NEAR
      THE TOP OF THE HOUR CONTAINING PRELIMINARY DATA FROM ALBUQUERQUE
      AND OTHER STATIONS.  A FINAL VERSION WITH ADDITIONAL DATA IS
      ISSUED ABOUT 10 MINUTES AFTER THE HOUR.

NMZ501-503-504-510>518-231400-
NORTHWEST PLATEAU/NORTHCENTRAL MOUNTAINS

CITY           SKY/WX    TMP DP  RH WIND       PRES   REMARKS
FARMINGTON     FAIR      40  25  55 E8        30.12S WCI  34
LOS ALAMOS     FAIR      37  27  67 SW8       30.26S WCI  30
SANTA FE       FAIR      36  28  73 SE6       30.24S WCI  31
TAOS             N/A     30  19  64 CALM      30.27S
ANGEL FIRE     FAIR      33  28  80 SE9       30.25S WCI  25

$$
NMZ402-403-502-505>509-231400-
WESTCENTRAL MOUNTAINS/SOUTHWEST MOUNTAINS

CITY           SKY/WX    TMP DP  RH WIND       PRES   REMARKS
GALLUP         FAIR      32  22  66 CALM      30.14S
GRANTS         FAIR      40  28  62 S16G22    30.20S WCI  32
SILVER CITY    FAIR      43  32  63 SE5       30.22R

$$
NMZ407-409-411-412-231400-
SOUTHERN DESERTS

CITY           SKY/WX    TMP DP  RH WIND       PRES   REMARKS
DEMING         FAIR      46  33  60 NE9       30.19R
LAS CRUCES     FAIR      51  34  51 SE12G17   30.21R
HOLLOMAN AFB   FAIR      43  30  59 N6        30.25R
ALAMOGORDO     FAIR      48  32  53 N7        30.22R
T OR C         FAIR      49  30  48 CALM      30.20R

$$
NMZ519>523-231400-
CENTRAL VALLEYS/CENTRAL HIGHLANDS

CITY           SKY/WX    TMP DP  RH WIND       PRES   REMARKS
ALBUQUERQUE    FAIR      44  28  53 N5        30.22R
DOUBLE EAGLE   PTCLDY    34  27  75 NW7       30.23R WCI  28
MORIARTY ARPT  FAIR      26  24  90 N3        30.27S
CLINES CORNERS FAIR      34  27  75 S13       30.26S WCI  25
BELEN          FAIR      40  28  64 CALM      30.23R
SOCORRO        FAIR      41  28  60 CALM      30.22R

$$
NMZ524>526-539-540-231400-
SOUTHCENTRAL MOUNTAINS

CITY           SKY/WX    TMP DP  RH WIND       PRES   REMARKS
RUIDOSO        FAIR      36  28  75 NE5       30.30S WCI  32

$$
NMZ527>531-231400-
NORTHEAST HIGHLANDS/NORTHEAST PLAINS

CITY           SKY/WX    TMP DP  RH WIND       PRES   REMARKS
LAS VEGAS      FAIR      33  28  81 S16       30.23F WCI  23
RATON          FAIR      33  27  78 N3        30.19F
CLAYTON        FAIR      35  29  78 SW12      30.19S WCI  27

$$
NMZ532>537-231400-
EASTCENTRAL PLAINS

CITY           SKY/WX    TMP DP  RH WIND       PRES   REMARKS
SANTA ROSA     FAIR      36  28  73 CALM      30.25S
TUCUMCARI      FAIR      40  31  70 SW5       30.22S
CANNON AFB     FAIR      41  34  77 CALM      30.26R
CLOVIS AIRPORT FAIR      37  28  70 SW5       30.26S WCI  34

$$
NMZ028-029-538-231400-
SOUTHEAST PLAINS

CITY           SKY/WX    TMP DP  RH WIND       PRES   REMARKS
ROSWELL        FAIR      45  34  65 SW6       30.28
ARTESIA        FAIR      45  34  65 S5        30.27S
CARLSBAD       FAIR      45  35  68 S6        30.26R
HOBBS          CLEAR     41  34  75 CALM      30.29R


$$




USA.gov is the U.S. government's official web portal to all federal, state and local government web resources and services.